This is the latest recevied weather packets stored in our database for station/object N9BID. If no packets are shown the sender has not sent any weather packets the latest 10 day(s).
| Time | Temp. | Humidity | Pressure | Rain* | Wind** | Luminosity | Snow |
|---|---|---|---|---|---|---|---|
| 1777552108 | 2.78° C | 82% | 1008.8 hPa | 0 mm | - | 56 W/m² | - |
| 1777551806 | 2.78° C | 83% | 1008.9 hPa | 0 mm | - | 50 W/m² | - |
| 1777551503 | 2.78° C | 84% | 1008.8 hPa | 0 mm | - | 44 W/m² | - |
| 1777551199 | 2.78° C | 87% | 1008.9 hPa | 0 mm | - | 46 W/m² | - |
| 1777550896 | 2.78° C | 88% | 1008.8 hPa | 0 mm | - | 42 W/m² | - |
| 1777550593 | 2.22° C | 87% | 1008.8 hPa | 0 mm | - | 37 W/m² | - |
| 1777550289 | 2.22° C | 88% | 1009 hPa | 0 mm | - | 32 W/m² | - |
| 1777549986 | 2.22° C | 89% | 1008.6 hPa | 0 mm | - | 25 W/m² | - |
| 1777549682 | 2.22° C | 90% | 1008.7 hPa | 0 mm | - | 21 W/m² | - |
| 1777549377 | 2.22° C | 92% | 1008.6 hPa | 0 mm | - | 19 W/m² | - |
| 1777549075 | 2.22° C | 94% | 1008.8 hPa | 0 mm | - | 19 W/m² | - |
| 1777548770 | 2.22° C | 95% | 1008.9 hPa | 0 mm | - | 16 W/m² | - |
| 1777548468 | 1.67° C | 95% | 1008.9 hPa | 0 mm | - | 13 W/m² | - |
| 1777548164 | 1.67° C | 95% | 1008.9 hPa | 0 mm | - | 10 W/m² | - |
| 1777547861 | 1.67° C | 95% | 1008.8 hPa | 0 mm | - | 7 W/m² | - |
| 1777547557 | 1.67° C | 95% | 1008.8 hPa | 0 mm | - | 6 W/m² | - |
| 1777547255 | 1.67° C | 94% | 1008.6 hPa | 0 mm | - | 4 W/m² | - |
| 1777546952 | 1.67° C | 94% | 1008.6 hPa | 0 mm | - | 3 W/m² | - |
| 1777546649 | 1.67° C | 94% | 1008.7 hPa | 0 mm | - | 1 W/m² | - |
| 1777546345 | 1.67° C | 94% | 1008.6 hPa | 0 mm | - | 0 W/m² | - |
| 1777546043 | 1.67° C | 94% | 1008.5 hPa | 0 mm | - | 0 W/m² | - |
| 1777545738 | 1.67° C | 94% | 1008.6 hPa | 0 mm | - | 0 W/m² | - |
| 1777545436 | 1.67° C | 94% | 1008.7 hPa | 0 mm | - | 0 W/m² | - |
| 1777545133 | 1.67° C | 94% | 1008.8 hPa | 0 mm | - | 0 W/m² | - |
| 1777544830 | 1.67° C | 93% | 1008.8 hPa | 0 mm | - | 0 W/m² | - |
* Rain latest hour (hover to see other rain measurements)
** Current wind speed in m/s (hover to see current wind gust speed)